Flag for Rwanda Weather past 2 weeks in Kigali, Rwanda

Now
75 °F

Passing clouds.


Feels Like: 78 °F
Forecast: 61 / 80 °F
Wind: 10 mph from South

Location: Kigali Airport

Current Time: Jul 30, 2014 at 11:08:31 AM

Latest Report: Jul 30, 2014 at 10:30 AM


Visibility: N/A

Pressure: 30.24 "Hg

Humidity: 44%

Dew point: 52 °F

Location of KigaliLocation

Historic Weather in Kigali — Graph

°F

Kigali temperature yesterday

Maximum temperature yesterday: 81 °F (at 2:30 PM)
Minimum temperature yesterday: 59 °F (at 6:00 AM)
Average temperature yesterday: 71 °F

Past Weeks' High & Low Weather Summary

 TemperatureHumidityPressure
High84 °F (Jul 19, 2:00 PM)100% (Jul 19, 4:00 AM)30.27 "Hg (Jul 19, 4:00 AM)
Low55 °F (Jul 19, 4:00 AM)32% (Jul 23, 3:00 PM)30.07 "Hg (Jul 25, 3:00 PM)
Average72 °F61%30.17 "Hg
* Reported Jul 15 10:00 AM — Jul 30 10:00 AM, Kigali, Weather by CustomWeather, © 2014

Note: Actual official high and low records may vary slightly from our data, if they occured in-between our weather recording intervals... More about our weather records

Advertising

Kigali weather history for previous 24 hours

 ConditionsComfort  
Time TempWeatherWind HumidityBarometerVisibility
10:00 AM
Jul 30
72 °FPassing clouds.7 mph53%30.27 "HgN/A
9:30 AM72 °FPassing clouds.8 mph50%30.27 "HgN/A
9:00 AM70 °FPassing clouds.10 mph53%30.27 "HgN/A
8:30 AM70 °FSunny.9 mph57%30.27 "Hg10 mi
8:00 AM68 °FSunny.5 mph60%30.24 "Hg10 mi
7:00 AM63 °FPassing clouds.No wind73%30.21 "HgN/A
6:00 AM61 °FPassing clouds.5 mph77%30.21 "HgN/A
4:00 AM64 °FPassing clouds.No wind68%30.15 "HgN/A
3:00 AM64 °FPassing clouds.5 mph68%30.15 "HgN/A
1:30 AM66 °FPassing clouds.No wind56%30.15 "HgN/A
1:00 AM68 °FPassing clouds.No wind56%30.15 "HgN/A
12:30 AM68 °FPassing clouds.No wind56%30.15 "HgN/A
12:00 AM68 °FPassing clouds.No wind56%30.15 "HgN/A
11:00 PM
Jul 29
70 °FPassing clouds.No wind53%30.15 "HgN/A
10:30 PM72 °FPassing clouds.5 mph50%30.15 "HgN/A
10:00 PM72 °FPassing clouds.5 mph50%30.15 "HgN/A
9:30 PM73 °FPassing clouds.6 mph47%30.15 "HgN/A
8:30 PM73 °FPassing clouds.3 mph47%30.15 "HgN/A
8:00 PM75 °FPassing clouds.3 mph47%30.12 "HgN/A
7:30 PM75 °FPassing clouds.3 mph44%30.12 "HgN/A
7:00 PM77 °FPassing clouds.6 mph39%30.12 "HgN/A
6:00 PM79 °FScattered clouds.5 mph39%30.09 "HgN/A
5:30 PM81 °FScattered clouds.8 mph37%30.09 "HgN/A
5:00 PM81 °FScattered clouds.9 mph37%30.09 "HgN/A
4:30 PM81 °FScattered clouds.10 mph37%30.09 "HgN/A
3:30 PM81 °FScattered clouds.10 mph37%30.09 "HgN/A
2:30 PM81 °FScattered clouds.8 mph37%30.12 "HgN/A
2:00 PM79 °FScattered clouds.10 mph42%30.15 "HgN/A
1:30 PM79 °FScattered clouds.13 mph39%30.18 "HgN/A
1:00 PM77 °FScattered clouds.12 mph42%30.18 "HgN/A
12:30 PM75 °FScattered clouds.6 mph44%30.21 "HgN/A
12:00 PM75 °FScattered clouds.12 mph44%30.21 "HgN/A
11:30 AM73 °FScattered clouds.14 mph50%30.24 "HgN/A
11:00 AM73 °FScattered clouds.14 mph50%30.24 "HgN/A
Weather by CustomWeather, © 2014

See weather overviewHow to use our weather pages